Location: Eimen
(51.8766°N, 9.7806°E)
Time: 14:38:56
(UTC+00:00)

HODOYOSHI 4 - Visible Passes

Search period start: 03 October 2024 00:00
Search period end: 13 October 2024 00:00
Orbit: 596 x 630 km, 97.6° (Epoch: 03 October)

Date Brightness Start Highest point End Pass type
(mag) Time Alt. Az. Time Alt. Az. Time Alt. Az.
03 Oct ? 18:30:12 10° NNE 18:34:12 36° E 18:36:16 23° SSE visible
03 Oct ? 20:06:23 10° N 20:10:08 30° WNW 20:13:15 13° WSW visible
04 Oct ? 18:45:19 10° NNE 18:49:32 50° E 18:51:00 34° SSE visible
04 Oct ? 20:21:54 10° N 20:25:15 23° WNW 20:28:00 13° WSW visible
05 Oct ? 04:11:14 10° E 04:13:02 12° NE 04:14:52 10° NNE visible
05 Oct ? 19:00:30 10° NNE 19:04:48 71° ESE 19:05:48 50° SSE visible
05 Oct ? 20:37:31 10° NNW 20:40:19 17° WNW 20:42:47 11° W visible
06 Oct ? 04:25:23 10° E 04:28:05 16° ENE 04:30:45 10° NNE visible
06 Oct ? 17:41:20 10° ENE 17:43:23 13° E 17:43:36 13° E visible
06 Oct ? 19:15:43 10° NNE 19:20:01 83° WNW 19:20:36 66° SSW visible
06 Oct ? 20:53:18 10° NNW 20:55:21 13° NW 20:57:23 10° W visible
07 Oct ? 04:39:51 10° ESE 04:43:07 21° ENE 04:46:23 10° NNE visible
07 Oct ? 17:55:50 10° NE 17:58:26 18° E 17:58:26 18° E visible
07 Oct ? 19:30:58 10° N 19:35:12 59° WNW 19:35:25 58° W visible
07 Oct ? 21:10:14 10° NW 21:10:19 10° NW 21:10:25 10° NW visible
08 Oct ? 04:54:29 10° ESE 04:58:11 27° ENE 05:01:51 10° N visible
08 Oct ? 18:10:36 10° NE 18:13:14 23° ENE 18:13:14 23° ENE visible
08 Oct ? 19:46:16 10° N 19:50:14 43° WNW 19:50:14 43° WNW visible
09 Oct ? 18:25:31 10° NNE 18:28:05 27° ENE 18:28:05 27° ENE visible
09 Oct ? 20:01:36 10° N 20:05:04 31° NW 20:05:04 31° NW visible
10 Oct ? 18:40:31 10° NNE 18:42:55 29° NE 18:42:55 29° NE visible
10 Oct ? 20:16:59 10° N 20:19:54 23° NW 20:19:54 23° NW visible
11 Oct ? 04:06:49 10° ENE 04:08:14 11° NE 04:09:39 10° NE visible
11 Oct ? 18:55:34 10° NNE 18:57:46 29° NNE 18:57:46 29° NNE visible
11 Oct ? 20:32:28 10° NNW 20:34:45 18° NW 20:34:45 18° NW visible
12 Oct ? 04:20:42 10° E 04:23:09 15° ENE 04:25:36 10° NNE visible
12 Oct ? 19:10:41 10° NNE 19:12:36 26° NNE 19:12:36 26° NNE visible
12 Oct ? 20:48:06 10° NNW 20:49:35 14° NW 20:49:35 14° NW visible
